Probability
0 0 0 0 0 0 0 0 0 0 0 0 0 0 0 0 0 0 0 0 0 0 0 0 3 0 6 6 0 0 3 3 3 3 3 3 0 0 3 3 6 6 3
0 0 0 0 0 0 0 0 0 0 0 0 0 0 0 0 0 0 0 0 0 0 3 0 3 3 0 3 0 0 0 0 0 0 3 3 0 0 0 3 3 3 0
0 0 0 0 0 0 0 0 0 0 0 0 0 0 0 0 0 0 0 0 0 0 0 3 3 3 0 3 0 0 0 0 0 0 3 3 0 0 0 0 0 3 3
0 0 0 0 0 0 0 0 0 0 0 0 0 0 0 0 0 0 0 0 0 0 0 0 0 3 6 0 0 0 0 0 0 0 0 3 3 0 0 0 0 0 3
0 0 0 0 0 0 0 0 0 0 0 0 0 0 0 0 0 0 0 0 0 0 0 0 0 0 0 0 0 0 0 0 0 0 0 0 0 3 0 0 0 0 0
0 0 0 0 0 0 0 0 0 0 0 0 0 0 0 0 0 0 0 0 0 0 0 0 0 0 0 0 0 0 0 0 0 0 0 0 0 0 0 0 0 0 0
0 0 0 0 0 0 0 0 0 0 0 0 0 0 0 0 0 0 0 0 0 0 0 0 0 0 0 0 0 0 0 0 0 0 0 0 0 0 0 0 0 0 3
0 0 0 0 0 0 0 0 0 0 0 0 0 0 0 0 0 0 0 0 0 0 0 0 0 0 0 0 0 0 0 0 0 0 0 0 0 0 0 0 0 0 3
0 0 0 0 0 0 0 0 0 0 0 0 0 0 0 0 0 0 0 0 0 0 0 0 0 0 0 0 0 0 0 0 0 0 0 0 0 0 0 0 3 3 3
0 0 0 0 0 0 0 0 0 0 0 0 0 0 0 0 0 0 0 0 0 0 0 0 0 0 0 0 0 0 0 0 0 0 0 0 0 0 0 0 0 3 3
0 0 0 0 0 0 0 0 0 0 0 0 0 0 0 0 0 0 0 0 0 0 0 0 0 0 0 0 0 0 0 0 0 0 0 0 0 0 0 0 0 0 0
0 0 0 0 0 0 0 0 0 0 0 0 0 0 0 0 0 0 0 0 0 0 0 0 0 0 0 0 0 0 0 0 0 0 0 0 0 0 0 0 0 0 0
0 0 0 0 0 0 0 0 0 0 0 0 0 0 0 0 0 0 0 0 0 0 0 0 0 0 0 0 0 0 0 0 0 0 0 0 0 0 0 0 0 0 0
0 0 0 0 0 0 0 0 0 0 0 0 0 0 0 0 0 0 0 0 0 0 0 0 0 0 0 0 0 0 0 0 0 0 0 0 0 0 0 0 0 0 0
0 0 0 0 0 0 0 0 0 0 0 0 0 0 0 0 0 0 0 0 0 0 0 0 0 0 0 0 0 0 0 0 0 0 0 0 0 0 0 0 0 0 0
0 0 0 0 0 0 0 0 0 0 0 0 0 0 0 0 0 0 0 0 0 0 0 0 0 0 0 0 0 0 0 0 0 0 0 0 0 0 0 0 0 0 0
0 0 0 0 0 0 0 0 0 0 0 0 0 0 0 0 0 0 0 0 0 0 0 0 0 0 0 0 0 0 0 0 0 0 0 0 0 0 0 0 0 0 0
0 0 0 0 0 0 0 0 0 0 0 0 0 0 0 0 0 0 0 0 0 0 0 0 0 0 0 0 0 0 0 0 0 0 0 0 0 0 0 0 0 0 0
0 0 0 0 0 0 0 0 0 0 0 0 0 0 0 0 0 0 0 0 0 0 0 0 0 0 0 0 0 0 0 0 0 0 0 0 0 0 0 0 0 0 0
0 0 0 0 0 0 0 0 0 0 0 0 0 0 0 0 0 0 0 0 0 0 0 0 0 0 0 0 0 0 0 0 0 0 0 0 0 0 0 0 0 0 0
0 0 0 0 0 0 0 0 0 0 0 0 0 0 0 0 0 0 0 0 0 0 0 0 0 0 0 0 0 0 0 0 0 0 0 0 0 0 0 0 0 0 0
0 0 0 0 0 0 0 0 0 0 0 0 0 0 0 0 0 0 0 0 0 0 0 0 0 0 0 0 0 0 0 0 0 0 0 0 0 0 0 0 0 0 0
0 0 0 0 0 0 0 0 0 0 0 0 0 0 0 0 0 0 0 0 0 0 0 0 0 0 0 0 0 0 0 0 0 0 0 0 0 0 0 0 0 0 0
0 0 0 0 0 0 0 0 0 0 0 0 0 0 0 0 0 0 0 0 0 0 0 0 0 0 0 0 0 0 0 0 0 0 0 0 0 0 0 0 0 0 0
0 0 0 0 0 0 0 0 0 0 0 0 0 0 0 0 0 0 0 0 0 0 0 0 0 0 0 0 0 0 0 0 0 0 0 0 0 0 0 0 0 0 0
0 0 0 0 0 0 0 0 0 0 0 0 0 0 0 0 0 0 0 0 0 0 0 0 0 0 0 0 0 0 0 0 0 0 0 0 0 0 0 0 0 0 0
Height
5792 5794 5797 5799 5802 5804 5806 5809 5811 5813 5815 5817 5820 5822 5824 5825 5827 5829 5830 5832 5833 5834 5836 5837 5838 5839 5840 5841 5841 5842 5842 5843 5843 5843 5843 5843 5842 5842 5841 5841 5840 5839 5839
5783 5785 5788 5791 5793 5796 5798 5801 5803 5806 5808 5810 5813 5815 5817 5819 5821 5823 5824 5826 5827 5829 5830 5832 5833 5834 5835 5836 5836 5837 5838 5838 5838 5838 5838 5838 5838 5838 5837 5837 5836 5836 5835
5774 5776 5778 5781 5784 5787 5790 5792 5795 5798 5800 5803 5805 5807 5810 5812 5814 5816 5818 5819 5821 5823 5824 5826 5827 5828 5829 5830 5831 5832 5832 5833 5833 5833 5833 5833 5833 5833 5833 5832 5832 5831 5831
5764 5766 5768 5771 5774 5777 5780 5783 5786 5789 5791 5794 5797 5799 5802 5804 5806 5808 5810 5812 5814 5816 5817 5819 5820 5822 5823 5824 5825 5826 5827 5827 5828 5828 5828 5828 5828 5828 5828 5827 5827 5826 5826
5752 5755 5757 5760 5763 5766 5769 5772 5775 5779 5782 5785 5787 5790 5793 5795 5797 5800 5802 5804 5806 5808 5810 5812 5813 5815 5816 5817 5818 5819 5820 5821 5821 5822 5822 5823 5823 5823 5822 5822 5822 5821 5821
5739 5742 5745 5748 5751 5755 5758 5761 5764 5767 5771 5774 5777 5780 5783 5786 5788 5791 5793 5796 5798 5800 5802 5804 5806 5807 5809 5810 5811 5812 5813 5814 5815 5815 5816 5816 5816 5816 5816 5816 5816 5815 5815
5726 5729 5732 5735 5739 5742 5746 5749 5752 5756 5759 5762 5766 5770 5773 5776 5779 5781 5784 5786 5789 5791 5794 5796 5797 5799 5801 5802 5804 5805 5806 5807 5808 5809 5809 5810 5810 5810 5810 5810 5809 5809 5809
5713 5715 5718 5722 5725 5729 5732 5736 5740 5743 5747 5750 5754 5758 5762 5766 5768 5771 5774 5776 5779 5782 5784 5786 5788 5790 5792 5794 5795 5797 5798 5799 5800 5801 5802 5802 5803 5803 5803 5803 5803 5803 5802
5698 5701 5704 5708 5711 5715 5719 5722 5726 5730 5734 5737 5741 5745 5749 5753 5757 5761 5763 5766 5769 5772 5774 5777 5779 5781 5783 5784 5786 5788 5789 5790 5791 5792 5793 5794 5795 5795 5795 5795 5795 5795 5795
5684 5687 5690 5693 5697 5701 5705 5709 5712 5716 5720 5724 5727 5731 5736 5740 5744 5748 5752 5755 5757 5760 5763 5766 5768 5770 5772 5775 5776 5778 5779 5781 5782 5784 5785 5785 5786 5786 5787 5787 5787 5787 5787
5669 5672 5676 5679 5683 5687 5690 5694 5698 5702 5706 5710 5714 5717 5721 5726 5729 5734 5739 5743 5746 5749 5752 5754 5757 5759 5761 5764 5766 5768 5770 5771 5773 5774 5775 5776 5777 5778 5778 5779 5779 5779 5779
5655 5658 5661 5665 5669 5673 5676 5680 5684 5688 5692 5696 5700 5703 5707 5712 5716 5720 5725 5729 5733 5736 5739 5742 5745 5747 5750 5752 5755 5757 5759 5761 5762 5764 5765 5766 5767 5768 5769 5770 5770 5770 5771
5641 5644 5647 5651 5654 5658 5662 5666 5670 5674 5678 5682 5686 5690 5693 5697 5701 5705 5710 5714 5719 5723 5726 5730 5733 5735 5738 5741 5743 5745 5748 5750 5751 5753 5755 5756 5757 5758 5759 5760 5761 5761 5761
5626 5630 5633 5637 5640 5644 5648 5652 5656 5660 5664 5667 5671 5675 5679 5683 5686 5691 5695 5700 5704 5709 5713 5717 5720 5722 5725 5728 5731 5733 5736 5738 5740 5742 5743 5745 5746 5747 5748 5749 5750 5751 5751
5612 5615 5619 5623 5626 5630 5633 5637 5641 5646 5649 5653 5657 5661 5664 5668 5672 5676 5681 5685 5690 5694 5700 5704 5706 5709 5712 5715 5717 5720 5723 5726 5728 5730 5732 5733 5735 5736 5737 5738 5739 5740 5740
5598 5602 5605 5609 5612 5616 5619 5623 5627 5631 5635 5639 5643 5647 5650 5654 5658 5662 5666 5670 5675 5679 5684 5690 5693 5695 5698 5701 5704 5707 5709 5712 5715 5717 5719 5721 5722 5724 5725 5726 5727 5728 5729
5584 5588 5592 5595 5599 5602 5606 5610 5613 5617 5621 5625 5629 5633 5637 5640 5644 5648 5652 5656 5660 5665 5670 5675 5678 5681 5684 5687 5690 5693 5696 5698 5701 5704 5706 5708 5709 5711 5712 5713 5714 5715 5716
5571 5574 5578 5581 5585 5589 5592 5596 5600 5604 5608 5612 5616 5620 5623 5627 5630 5634 5638 5642 5646 5650 5655 5660 5664 5666 5670 5673 5676 5679 5682 5684 5687 5690 5692 5694 5696 5698 5699 5700 5701 5702 5703
5557 5560 5564 5568 5571 5575 5578 5582 5586 5590 5594 5598 5603 5606 5610 5613 5616 5620 5623 5627 5632 5636 5640 5644 5649 5652 5655 5658 5661 5664 5667 5670 5673 5676 5678 5680 5682 5684 5685 5687 5688 5689 5690
5544 5548 5551 5554 5557 5560 5564 5568 5572 5576 5580 5584 5588 5592 5596 5599 5602 5606 5609 5613 5617 5621 5625 5630 5634 5637 5640 5643 5646 5649 5652 5655 5658 5661 5663 5665 5667 5669 5671 5673 5674 5675 5676
5532 5535 5538 5541 5544 5546 5550 5553 5558 5562 5566 5570 5573 5577 5581 5584 5587 5591 5594 5598 5602 5606 5610 5614 5619 5622 5626 5628 5632 5635 5637 5640 5643 5645 5648 5651 5653 5655 5657 5658 5659 5661 5662
5520 5522 5525 5527 5530 5533 5536 5539 5543 5546 5550 5555 5559 5562 5565 5569 5572 5576 5579 5583 5587 5591 5596 5600 5603 5607 5611 5613 5616 5619 5621 5625 5629 5632 5633 5636 5638 5641 5642 5644 5645 5646 5647
5508 5510 5512 5514 5517 5519 5522 5524 5527 5530 5534 5539 5543 5546 5550 5553 5557 5561 5564 5568 5572 5576 5580 5585 5588 5592 5595 5598 5601 5604 5606 5609 5613 5615 5617 5621 5623 5626 5628 5629 5630 5632 5633
5496 5498 5500 5502 5504 5506 5507 5510 5512 5515 5518 5523 5527 5531 5534 5537 5541 5545 5549 5553 5557 5561 5565 5569 5574 5577 5579 5582 5585 5588 5590 5593 5596 5598 5601 5605 5608 5611 5613 5614 5615 5616 5617
5484 5487 5488 5490 5491 5493 5494 5495 5497 5500 5503 5507 5511 5515 5518 5522 5525 5529 5534 5538 5542 5545 5548 5553 5557 5560 5563 5566 5568 5571 5573 5576 5580 5583 5585 5589 5592 5595 5597 5599 5600 5601 5602
5473 5474 5476 5477 5478 5480 5481 5482 5483 5485 5489 5492 5495 5499 5503 5506 5509 5512 5517 5522 5526 5530 5533 5537 5541 5544 5547 5550 5552 5554 5557 5560 5564 5567 5570 5572 5575 5577 5581 5584 5585 5585 5586
Wind_Speed
36 36 35 35 35 34 34 33 32 31 30 29 29 28 28 27 26 25 25 24 24 24 23 22 21 21 20 20 19 19 18 18 17 17 17 17 17 17 17 17 16 16 16
37 37 38 38 38 37 37 36 35 34 33 32 31 31 30 29 28 28 27 27 26 26 25 24 24 23 23 22 22 21 21 20 20 20 19 19 19 19 19 18 18 18 18
40 40 39 39 39 40 39 39 38 37 36 35 35 34 32 32 31 30 30 29 29 28 27 27 26 25 25 25 24 24 23 23 22 22 22 22 21 21 20 20 20 19 19
42 42 41 41 41 41 41 41 41 40 39 38 37 37 35 34 34 33 32 31 31 30 29 29 28 27 27 27 26 26 26 25 25 24 23 23 22 22 22 21 21 21 21
46 45 45 44 44 43 43 43 43 43 42 41 40 39 38 37 36 35 34 34 33 32 32 31 30 29 29 28 28 28 27 27 26 26 25 24 23 23 23 23 23 23 22
48 48 48 47 46 45 45 45 45 44 43 43 42 41 41 40 38 37 37 36 36 35 35 34 33 32 32 31 31 30 30 29 29 27 27 26 25 25 25 25 25 24 24
50 50 49 49 49 48 47 47 47 46 45 45 44 43 43 42 41 40 39 39 38 38 37 36 36 35 34 34 33 33 32 31 30 29 29 28 27 27 27 26 26 25 25
51 51 50 50 49 49 49 49 49 48 48 47 47 47 46 45 44 42 41 41 40 40 39 39 38 37 36 36 35 34 34 33 32 31 30 30 29 28 28 28 28 27 27
52 52 51 51 51 51 50 50 49 50 50 49 49 49 49 47 46 45 44 43 43 42 42 41 41 39 39 38 37 36 36 35 34 33 32 32 31 31 30 30 29 29 28
52 52 52 52 52 52 51 51 50 50 50 51 51 51 51 50 48 47 47 46 45 44 44 43 43 42 41 40 39 38 38 37 36 35 35 34 33 32 32 32 31 31 31
52 53 52 53 52 52 51 51 51 50 51 52 52 52 52 52 52 51 49 48 47 46 46 45 44 43 43 42 41 40 40 39 38 37 37 36 35 34 34 33 33 33 32
52 52 51 53 53 53 52 52 52 51 51 51 51 52 52 53 53 52 51 50 50 48 48 47 46 45 45 44 43 42 41 41 40 39 39 38 37 36 35 35 34 33 33
52 52 52 53 53 54 53 52 52 52 52 52 52 52 52 53 53 54 53 51 51 50 50 49 48 47 47 46 45 44 44 43 42 41 41 40 39 39 38 37 36 35 35
52 52 53 53 53 54 55 54 54 53 53 53 52 52 52 52 53 53 54 53 52 51 51 50 50 49 48 48 47 47 46 45 44 43 43 42 41 41 40 39 39 39 38
51 52 53 54 54 54 55 55 53 54 54 53 52 52 53 53 54 54 54 55 54 53 52 51 51 50 50 49 49 48 47 47 46 45 45 44 44 44 43 42 42 41 41
51 51 51 53 54 54 55 55 54 55 55 54 53 53 53 53 54 54 54 55 55 55 53 52 51 51 50 49 49 49 48 48 48 47 46 45 45 45 45 45 44 44 44
52 52 52 52 53 52 53 55 54 54 54 53 53 53 53 52 53 54 54 54 55 55 54 52 52 52 51 50 49 49 49 49 49 49 48 47 47 47 47 48 47 47 46
51 51 52 52 52 52 53 54 53 53 53 53 53 52 52 53 52 54 55 55 54 55 54 53 52 53 52 51 50 50 50 51 51 50 50 49 48 49 49 49 49 49 49
50 50 52 53 53 53 54 53 54 55 55 54 54 53 52 53 52 53 54 55 55 54 54 54 53 53 53 53 53 53 52 52 52 52 51 51 51 51 51 51 51 51 51
48 49 50 52 53 54 55 56 55 55 55 56 55 55 55 54 53 53 53 54 54 54 55 55 54 54 54 54 55 55 54 53 53 54 53 53 52 52 52 52 51 51 51
47 48 49 51 52 52 54 55 55 55 54 55 55 55 56 55 54 54 54 54 54 54 54 54 55 55 55 55 55 55 55 55 54 54 54 54 54 53 53 52 52 52 51
46 47 48 49 50 51 53 56 56 56 55 55 55 54 55 56 56 55 55 54 55 56 56 55 55 55 55 55 55 56 57 57 55 55 55 55 54 53 53 53 53 52 52
44 45 46 47 48 50 52 54 55 55 54 54 53 53 55 56 56 57 56 56 56 57 58 58 57 57 56 55 55 56 57 57 57 57 57 56 55 55 54 54 54 53 53
42 42 43 44 46 48 49 52 53 54 54 54 53 53 53 54 55 56 57 57 57 57 58 59 59 58 57 56 56 57 58 58 58 58 59 58 57 57 56 55 55 55 55
42 43 44 44 45 46 47 49 50 51 52 53 54 54 53 53 54 56 56 57 57 57 58 59 58 58 57 57 57 58 58 58 58 58 59 59 59 58 57 56 56 56 56
42 42 43 44 44 45 46 47 48 49 50 52 53 54 54 53 54 55 56 57 57 58 58 59 58 58 57 57 57 56 56 57 57 58 59 59 59 60 59 58 58 57 57
Wind_Direction
249 249 250 250 248 248 248 249 249 249 249 248 248 248 250 251 251 251 252 252 252 253 254 256 258 261 261 262 264 266 268 270 273 276 279 282 284 286 288 290 291 291 292
251 250 250 251 250 248 248 248 248 249 249 249 249 249 249 250 251 251 252 252 252 252 253 255 258 260 261 262 264 265 267 269 272 275 277 280 281 282 284 286 287 288 288
252 252 251 251 251 250 248 249 248 249 249 249 249 249 250 251 251 252 252 252 252 252 253 255 257 260 261 262 263 265 266 268 270 274 276 278 279 279 281 283 284 285 286
252 251 250 250 251 250 249 250 249 248 249 250 249 249 249 250 251 252 252 252 252 253 254 254 255 258 261 262 263 264 266 267 269 271 274 276 276 277 278 280 282 282 283
251 251 251 250 250 250 250 251 251 249 249 249 249 249 248 249 251 252 252 251 252 253 254 254 255 257 260 262 262 264 266 267 268 270 272 273 274 276 277 279 281 281 282
251 251 250 249 250 250 251 251 250 250 250 249 249 248 248 248 250 252 252 251 252 253 253 254 255 258 260 261 262 263 265 266 267 269 270 271 273 274 275 277 278 279 281
252 252 251 250 250 251 251 251 250 250 250 249 249 248 249 249 250 252 253 253 253 254 254 255 256 258 260 261 262 263 264 265 266 268 269 270 272 274 274 276 276 278 279
251 252 252 250 250 251 252 250 250 250 250 250 249 249 248 249 250 251 252 253 253 253 254 255 257 258 259 260 261 262 263 264 266 267 268 269 271 272 274 275 276 275 276
251 251 251 250 250 250 250 250 250 250 250 250 250 249 249 249 250 250 251 252 252 253 254 255 257 258 259 260 260 261 262 263 264 266 266 268 269 272 273 274 274 274 275
251 250 250 250 250 249 249 249 249 249 250 250 250 250 250 249 249 249 249 250 252 253 254 255 256 257 258 259 259 260 262 263 263 264 265 267 269 270 270 271 273 273 273
250 250 250 250 249 248 247 248 248 248 249 250 250 250 250 249 249 249 249 249 250 251 252 254 255 257 258 258 259 260 261 262 262 263 264 265 267 269 269 269 271 271 271
249 249 250 250 249 247 247 247 248 248 249 250 250 250 249 249 249 249 249 248 249 249 250 252 254 255 257 257 258 259 260 260 261 262 263 264 266 267 268 268 269 269 270
249 248 248 249 248 247 247 247 248 248 249 250 251 251 250 250 250 250 249 249 250 250 250 252 253 255 255 256 257 258 259 259 260 261 261 262 264 265 266 267 267 269 270
249 248 247 247 248 248 248 247 248 248 249 250 251 252 251 250 250 250 250 249 249 249 250 251 252 254 255 255 256 257 258 259 260 260 261 262 262 263 265 266 266 268 270
250 248 248 247 248 248 248 250 249 249 249 250 251 252 251 250 250 250 250 250 250 250 249 250 251 253 253 254 255 256 257 258 259 260 261 261 262 263 264 265 266 267 269
250 249 249 249 249 249 249 249 249 249 249 250 251 252 252 252 251 251 251 251 250 250 250 248 250 252 252 253 255 256 257 257 258 259 260 261 262 263 264 265 266 266 268
252 251 250 251 250 250 249 249 248 247 248 249 250 251 253 253 252 251 250 250 249 249 250 249 250 251 252 254 254 255 256 257 258 259 260 261 262 263 264 265 266 267 268
253 252 251 250 250 250 249 249 249 249 249 250 250 252 254 254 253 252 251 250 249 249 249 249 250 252 252 254 255 255 256 256 257 258 259 260 261 262 263 265 266 267 268
254 253 252 252 251 251 250 249 250 250 250 250 250 251 254 255 254 253 251 250 249 250 250 251 251 252 253 254 255 256 256 256 257 258 259 260 261 262 263 265 266 267 268
255 254 253 253 253 252 251 250 251 251 251 252 252 252 254 254 255 253 252 251 250 251 251 251 252 253 254 255 255 256 256 256 257 258 259 260 261 262 263 264 265 266 267
255 254 254 254 253 252 252 252 251 252 252 253 254 254 254 254 253 253 253 252 251 251 252 252 253 254 255 255 256 257 257 256 256 257 258 260 261 262 263 263 265 266 266
257 256 256 255 254 254 254 253 253 253 252 252 253 254 254 253 253 253 254 253 252 252 253 254 254 254 256 256 256 256 257 256 256 257 258 259 260 261 263 264 265 265 266
256 256 257 256 256 256 255 255 255 254 252 251 251 252 253 253 253 253 254 253 253 253 253 254 254 255 256 257 257 257 256 256 256 257 257 258 259 261 262 264 265 265 266
255 256 256 257 257 257 256 257 255 253 252 252 251 251 252 253 254 253 253 253 253 253 253 254 253 254 255 256 256 257 255 256 256 257 258 258 259 261 263 264 265 266 266
255 256 257 258 259 258 257 256 255 254 254 253 252 252 252 253 253 252 252 253 254 253 253 254 254 255 255 256 257 257 256 256 257 258 258 259 260 261 262 264 265 265 266
258 259 260 260 259 258 258 257 256 255 254 253 252 252 252 253 253 252 252 252 253 252 253 253 253 254 254 255 257 257 257 258 258 258 259 260 260 261 261 262 264 264 265